User: anonymous
Location: Vancouver
(49.2500°N, 123.1330°W)
Time: 17:23:00
(UTC-07:00)
Language:

Vanguard 2 Rocket - Orbit

View from above orbital plane
View from above orbital plane
View from above satellite
View from above satellite

Ground track
Ground track

The orbit data is extracted from the following two-line orbital elements,

1 00012U 59001B   14232.34884272  .00000314  00000-0  19265-3 0  8957
2 00012 032.8971 233.3797 1671387 052.4176 321.6796 11.43343722278783
Epoch (UTC): 20 August 2014 08:22:20
Eccentricity: 0.1671387
inclination: 32.8971°
perigee height: 554 km
apogee height: 3336 km
right ascension of ascending node: 233.3797°
argument of perigee: 52.4176°
revolutions per day: 11.43343722
mean anomaly at epoch: 321.6796°
orbit number at epoch: 27878

The dashed part of the orbit path shows where the satellite is in the earth's shadow,  

DLR